Location: ??
(35.5653°N, 139.6194°E)
Time: 12:45:57
(UTC+00:00)

CZ-3B R/B - Pass Details

Date: 20 November 2019
Orbit: 142 x 2234 km, 27.0° (Epoch: 08 December)

Event Time Altitude Azimuth Distance (km) Brightness Sun altitude
Exits shadow 19:35:22 21° 229° (SW) 2,177 3.6 -21.6°
Maximum altitude 19:38:53 33° 183° (S) 1,367 2.9 -20.9°
Drops below altitude 10° 19:42:55 10° 118° (ESE) 1,903 4.7 -20.1°
Sets 19:44:48 0° 107° (ESE) 2,537 5.9 -19.7°
